Regional Weather Roundup
Issued by NWS

Home | Current Version | Previous Version | Graphics & Text | Print | Product List | Glossary On
Versions: 1 2 3 4 5 6 7 8 9 10 11 12 13 14 15 16 17 18 19 20 21 22 23 24 25 26 27 28 29 30 31 32 33 34 35 36 37 38 39 40 41 42 43 44 45 46 47 48 49 50
000
ASUS43 KMPX 190710
RWRMN
WEATHER ROUNDUP FOR MINNESOTA
NATIONAL WEATHER SERVICE TWIN CITIES/CHANHASSEN MN
200 AM CDT THU OCT 19 2017


NOTE: "FAIR" INDICATES FEW OR NO CLOUDS BELOW 12,000 FEET WITH NO
SIGNIFICANT WEATHER AND/OR OBSTRUCTIONS TO VISIBILITY. N/A MEANS
CURRENT SKY AND/OR WEATHER CONDITIONS ARE NOT AVAILABLE.

MNZ060>063-068>070-190800-
   Twin Cities Metro

CITY           SKY/WX    TMP DP  RH WIND       PRES   REMARKS
TWIN CITIES    CLOUDY    52  30  43 W5        30.03R
ST PAUL        CLOUDY    48  36  63 CALM      30.04R
CRYSTAL        PTCLDY    50  28  42 W8        30.01R HAZE
BLAINE         CLOUDY    52  28  40 W6        30.01S
LAKEVILLE      CLOUDY    39  34  81 CALM      30.04R
EDEN PRAIRIE   CLOUDY    51  29  42 W6        30.02R
SOUTH ST PAUL  CLOUDY    47  30  51 W3        30.03R
LAKE ELMO      FAIR      43  32  65 SW5       30.03R
$$
MNZ001>005-007-008-013>017-022>024-027-028-190800-
   Northwest Minnesota

CITY           SKY/WX    TMP DP  RH WIND       PRES   REMARKS
BEMIDJI        CLOUDY    43  23  44 W9        29.90S
HALLOCK        CLEAR     37  16  41 CALM      29.86R
ROSEAU         CLEAR     46  19  34 W12G20    29.83R
WARROAD        CLEAR     43  21  42 W12G17    29.82R
THIEF RVR FALL CLEAR     41  23  48 SW10      29.91R
CROOKSTON      CLOUDY    37  23  56 SW9       29.93R
FOSSTON        CLEAR     34  21  60 SW7       29.93R WCI  28
DETROIT LAKES  CLOUDY    46  28  49 W8        29.96S
MOORHEAD       CLOUDY    39  27  60 SW6       29.96F
PARK RAPIDS    CLOUDY    43  25  49 SW3       29.95R
MAHNOMEN       FAIR      35  25  66 SW8       29.94S WCI  28
$$
MNZ006-009>011-018-025>026-190800-
   North Central Minnesota

CITY           SKY/WX    TMP DP  RH WIND       PRES   REMARKS
BAUDETTE       CLOUDY    48  18  30 W16G28    29.80R
FLAG ISLAND    CLEAR     48  18  29 W15       29.76R
INTL FALLS     CLOUDY    46  17  31 W8        29.79R
WASKISH        CLOUDY    48  30  49 W17G24    29.86R
BIG FORK       CLOUDY    50  19  29 W9        29.87R
LONGVILLE      CLOUDY    46  25  42 W7        29.92S
GRAND RAPIDS   CLOUDY    47  25  42 W6        29.92R
CRANE LAKE     CLOUDY    46  12  25 W7        29.81R
ORR            CLOUDY    46  16  29 W10G18    29.81R
COOK           CLOUDY    46  21  36 W8        29.85R
WALKER         FAIR      44  22  42 SW8       29.93R
$$
MNZ012-019>021-037-190800-
   Northeast Minnesota

CITY           SKY/WX    TMP DP  RH WIND       PRES   REMARKS
DULUTH         CLOUDY    43  22  43 W13       29.89R
ELY            CLOUDY    46  16  29 W13G20    29.81R
HIBBING        CLOUDY    46  21  37 W7        29.88R
EVELETH        CLOUDY    45   9  22 W9        29.88R
DULUTH HARBOR  CLOUDY    50  25  37 SW15      29.91R
TWO HARBORS    CLOUDY    48  27  43 SW8       29.85R
SILVER BAY     PTCLDY    48  19  32 SW5       29.82S
GRAND MARAIS     N/A     47  28  47 W8        29.77R
G MARAIS ARPRT CLEAR     45  12  26 W8        29.76R
$$
MNZ029>031-032-039>041-046>048-054>057-064-190800-
   West Central Minnesota

CITY           SKY/WX    TMP DP  RH WIND       PRES   REMARKS
FERGUS FALLS   CLOUDY    37  30  75 S5        30.00S
WHEATON        CLOUDY    43  30  61 S3        30.01R
MORRIS         CLOUDY    43  32  65 SW3       30.00R
ALEXANDRIA     CLOUDY    42  33  70 SW6       30.01R
ELBOW LAKE     FAIR      37  32  84 CALM      30.00S
WADENA         CLOUDY    39  28  65 SW6       29.97R
GLENWOOD       CLOUDY    43  34  70 SW7       30.01S
APPLETON       CLOUDY    45  30  57 SW5       30.01S
BENSON         CLOUDY    39  30  70 SW3       30.03S
ORTONVILLE     CLOUDY    45  30  57 CALM      30.01R
MADISON        CLOUDY    43  34  70 S5        30.02S
WILLMAR        FAIR      43  34  70 W3        30.03F
$$
MNZ033>034-036-042>043-049>051-058-059-190800-
   Central Minnesota

CITY           SKY/WX    TMP DP  RH WIND       PRES   REMARKS
ST CLOUD       CLOUDY    43  32  65 SW7       30.00S
SAUK CENTRE    FAIR      39  32  76 CALM      30.01R
PAYNESVILLE    PTCLDY    42  33  71 W6        30.02S
AITKIN         CLOUDY    45  25  45 SW6       29.93S
PINE RIVER     CLOUDY    43  25  49 SW3       29.98R
BRAINERD       CLOUDY    44  25  47 SW9       29.97R
STAPLES        CLOUDY    43  25  49 SW6       29.97R
LONG PRAIRIE   FAIR      39  32  75 S6        30.00S
LITTLE FALLS   CLOUDY    39  25  56 CALM      29.99S
LITCHFIELD     CLOUDY    46  32  57 CALM      30.03S
BUFFALO        CLOUDY    46  32  56 CALM      30.03S
MAPLE LAKE     CLOUDY    46  33  61 W3        30.03R
HUTCHINSON     CLEAR     43  33  69 SW3       30.04S
$$
MNZ037-044-045-052-053-190800-
   East Central Minnesota

CITY           SKY/WX    TMP DP  RH WIND       PRES   REMARKS
PRINCETON      CLOUDY    46  30  53 SW3       30.01R
MORA           CLOUDY    45  30  57 W5        30.00R
CAMBRIDGE      CLOUDY    50  34  53 SW5       30.01R
RUSH CITY      CLOUDY    46  29  51 SW6       30.00R
MOOSE LAKE       N/A    N/A N/A N/A CALM      29.93R
HINCKLEY       FAIR      41  30  65 SW6       29.98R
CLOQUET        CLOUDY    46  18  31 SW9       29.92R
MCGREGOR       CLOUDY    45  27  49 SW6       29.94R
$$
MNZ071>073-080-081-089-090-097-098-190800-
   Southwest Minnesota

CITY           SKY/WX    TMP DP  RH WIND       PRES   REMARKS
MONTEVIDEO     CLOUDY    43  28  56 W3        30.03R
GRANITE FALLS  CLOUDY    39  34  80 S7        30.05S
CANBY          PTCLDY    51  27  38 CALM      30.03S
MARSHALL       CLOUDY    47  29  49 SW3       30.03F
REDWOOD FALLS  CLOUDY    42  31  64 SW6       30.04S
OLIVIA         CLOUDY    41  32  70 SW3       30.03S
PIPESTONE      CLOUDY    39  30  70 E3        30.05S
WORTHINGTON    CLOUDY    40  34  79 S3        30.06F
JACKSON        CLOUDY    43  32  65 CALM      30.07S
TRACY          CLOUDY    49  32  51 SW7       30.04S
SLAYTON        CLOUDY    41   9  27 S6        30.06S
$$
MNZ065>067-074>077-082>085-091>093-190800-
   South Central Minnesota

CITY           SKY/WX    TMP DP  RH WIND       PRES   REMARKS
MANKATO        CLOUDY    45  31  58 CALM      30.06R
NEW ULM        CLOUDY    41  30  65 W6        30.05R
ST JAMES       CLOUDY    41  34  75 SW6       30.06S
FAIRMONT       CLOUDY    42  33  70 CALM      30.06S
GLENCOE        CLOUDY    41  35  77 CALM      30.03S
FARIBAULT      CLOUDY    41  32  70 CALM      30.05R
OWATONNA       CLOUDY    39  32  75 SW6       30.05R
WASECA         PTCLDY    36  34  93 CALM      30.06S
$$
MNZ078>079-086>088-094>096-190800-
   Southeast Minnesota

CITY           SKY/WX    TMP DP  RH WIND       PRES   REMARKS
ROCHESTER      CLOUDY    46  30  53 W8        30.05S
RED WING       PTCLDY    41  32  70 CALM      30.03R
STANTON        CLOUDY    40  35  79 S6        30.03R
DODGE CENTER   PTCLDY    43  30  61 W5        30.05S
WINONA         CLOUDY    48  32  53 CALM      30.05R
AUSTIN         CLOUDY    45  30  57 CALM      30.05S
PRESTON        CLOUDY    46  28  50 NW7       30.05S
$$
ABBREVIATIONS USED IN REMARKS
   TC - TEMPERATURES IN CELSIUS
  WCI - WIND CHILL INDEX
   HX - HEAT INDEX
  VSB - VISIBILITY
$$




USA.gov is the U.S. government's official web portal to all federal, state and local government web resources and services.